Vertical_Velocity
0 0 -0 -2 -2 0 -2 0 0 -1 -0 -1 -1 -0 -1 0 -4 2 -2 -4 1 2 -2 2 4 2 1 3 0 2 -0 -2 -2 2 -4 2 0 0 -1 -1 -0 -1 -1 -3 -2
-1 -1 1 1 -2 -2 -2 -2 -2 -1 -1 -1 -2 1 0 -1 -3 -3 -0 -0 0 -2 -5 -6 1 1 3 1 1 2 3 -3 -2 -0 -0 1 1 0 -1 -1 -1 -2 -2 -3 -2
-2 -0 -1 -1 -2 -2 0 -4 -2 -0 -2 -1 -1 -2 -1 -2 -1 -3 -0 1 1 -0 -3 -1 -4 -2 1 1 1 0 0 3 -1 -4 -1 -1 -1 -2 -0 -2 -1 -2 0 1 1
-3 -1 0 -0 -1 0 0 -0 -1 -2 -2 -2 2 1 -1 2 -1 -2 -1 -1 0 -2 -3 -1 0 -0 2 0 2 -1 1 0 1 -3 -2 -2 -2 -3 -1 -2 -3 -3 -4 -4 -1
-1 -2 -2 -2 -1 -0 -1 -2 -2 -1 -0 -2 -4 -0 -3 2 -4 2 0 1 1 -0 1 0 -1 -1 1 0 -1 -1 3 1 -2 -0 -1 -2 -1 -3 -1 -1 -1 -2 -3 -4 -4
3 1 -1 -2 -2 -2 -0 0 -0 -1 -3 -1 -2 -1 -4 -0 0 -1 0 0 1 0 1 1 1 0 -1 1 0 2 1 3 -2 -1 -1 -2 -1 -2 1 -2 -3 -2 -4 -2 -3
0 -3 -1 -2 -0 0 -1 -1 -0 -1 -2 -1 -3 -1 -1 -2 -1 -1 -1 -1 -1 -1 -1 2 3 1 -1 -3 0 0 -1 1 1 1 -3 0 -3 0 -3 1 -2 0 -3 -2 -3
-4 -0 -3 -3 -2 -1 -1 -1 0 -2 -3 -1 -1 -5 1 1 -0 -1 1 2 1 -3 -8 1 0 0 2 -1 -3 0 -2 0 -1 1 -2 -0 1 -0 -1 0 -1 -2 -2 -2 -1
-1 -0 -4 -6 -4 -3 -2 -3 -4 -6 -3 -2 -4 2 -2 -2 1 0 -0 0 -2 -1 -1 -1 -2 -2 -3 -1 1 -1 3 -0 -0 1 1 0 1 -3 -1 1 -2 1 -3 -5 -3
-1 4 2 2 -0 2 3 -2 1 -5 -1 -3 -4 -2 -1 -3 0 0 -2 1 -2 -0 -2 2 -0 3 -1 -0 1 3 0 -3 1 -2 1 -0 -2 -0 -2 -3 1 -4 -5 -1 -1
-0 1 2 -0 -2 -3 2 -2 -5 -7 -0 8 1 -2 -1 -2 -1 -1 -2 -1 0 -0 0 3 2 2 1 -2 1 -1 -0 -0 1 0 2 -1 0 -1 -2 1 1 -4 -1 -3 -2
-1 -1 -2 1 -5 -5 1 -1 2 0 -14 -1 1 -4 -1 -3 -2 1 -2 -2 -2 -1 2 -1 -2 -3 0 -1 2 -1 -0 -1 -1 0 2 1 -2 -4 1 2 -5 -2 -3 -6 -2
-1 2 -4 11 13 2 -2 1 4 2 -1 -10 -1 -0 -3 -1 -0 -2 1 0 -5 -0 2 0 1 2 -1 -0 -0 0 1 0 1 -1 0 -1 -2 -1 -1 -6 1 5 4 11 -4
-0 -2 1 2 -4 6 2 1 -2 -3 -3 -4 1 0 -3 -1 -1 1 -1 -0 -2 -1 2 -1 2 1 1 1 2 1 -1 -1 2 2 1 -3 0 -2 -2 6 4 4 1 -1 -1
-2 -2 0 2 1 -5 -2 -2 4 3 4 5 1 -1 1 -1 -0 1 -1 0 -0 0 3 -1 1 0 -1 -1 1 -2 -0 2 4 -0 -2 -2 2 -1 -3 -6 -9 -12 -3 0 -2
2 -2 -1 3 0 6 -1 2 7 2 1 -1 2 -1 -2 -3 -0 -3 -1 1 1 -1 3 -1 -0 0 1 -5 -1 -0 -1 2 1 -2 3 -2 -1 2 -1 -1 -10 6 6 -7 -2
0 -2 1 -1 -2 7 -1 -5 -6 3 -0 -1 -1 -3 1 -2 -0 0 -2 1 -1 1 2 1 -0 -1 -5 -3 -0 -0 -0 -1 2 4 3 -1 1 -1 1 -4 -3 -7 -2 -4 -2
-1 -2 -2 -2 1 1 -11 -2 -1 -5 -12 -9 5 -1 3 4 -3 1 -2 1 -1 2 0 1 4 -1 -4 -2 -0 -0 0 1 1 1 2 -1 -0 -3 1 -1 -0 -1 1 2 1
-1 -2 -1 -4 -1 11 -1 5 -0 1 -3 2 -0 2 -4 1 -6 2 -2 1 -1 -2 -1 0 -0 0 0 0 -1 0 -0 -0 0 -1 3 -1 -2 -2 -2 3 3 -1 5 -1 -1
-2 -4 -1 8 -11 -1 2 -1 -1 3 3 1 2 4 0 0 -1 0 -2 -0 -1 -1 -0 0 -1 -0 -2 0 0 0 -1 -1 -0 1 -1 1 -1 2 -8 -5 -3 0 -2 -1 -0
-3 -1 -7 -1 -0 2 -5 -4 1 0 -1 -1 1 -4 2 1 -1 1 -3 0 -0 -0 0 0 1 -1 -0 -0 -1 -1 -1 -0 -0 -1 3 1 4 -2 -1 -3 -3 1 -5 -6 -0
3 -2 -5 -2 2 -0 0 -2 -2 2 1 9 4 10 -1 3 1 1 -3 -0 -1 -1 -0 1 1 -0 -1 -2 -1 0 -1 -0 1 0 -2 -1 1 -3 -1 -1 0 -1 -0 -1 -2
-3 -1 -2 1 -3 -3 -0 2 2 1 3 -1 8 7 3 -1 -0 -0 1 -1 -0 -2 -1 2 1 -0 1 -1 -2 -0 -0 0 1 -0 -1 2 4 -2 -3 -4 -0 -2 1 -0 1
-2 -2 -3 -1 -0 -4 2 1 0 1 -3 -3 -4 -3 -2 1 -0 -2 -1 -0 -0 -0 1 0 -2 0 2 -1 1 -0 0 0 1 0 -0 -3 2 -4 -0 -1 0 -2 -1 -3 -4
1 -3 -1 -3 -2 -0 1 -2 -1 5 1 1 -3 5 5 2 1 -1 2 2 -0 1 2 -1 -1 -0 -0 -0 0 1 1 0 -1 1 -1 -1 2 -1 2 -2 -0 -1 -1 -2 1
-3 0 1 -2 -2 0 -0 -1 2 3 6 1 3 4 5 2 7 2 4 2 1 -1 2 0 -2 -0 -5 -0 -1 -2 0 0 -0 -0 1 -1 0 -2 0 -3 -2 -0 2 -2 -0
-3 3 1 -2 -1 1 -2 -0 -1 2 -3 2 -1 0 -0 4 1 2 2 1 0 -2 -1 -0 0 0 -1 -0 -2 -4 0 -1 -0 1 2 0 -0 -3 -1 -2 -3 -2 1 -2 1
Height
3136 3133 3131 3129 3126 3124 3122 3120 3118 3116 3113 3111 3109 3107 3105 3103 3101 3099 3097 3095 3093 3091 3090 3089 3088 3086 3084 3082 3081 3081 3081 3078 3078 3076 3073 3072 3071 3070 3069 3066 3065 3064 3061 3058 3055
3134 3130 3128 3126 3124 3121 3120 3118 3116 3113 3110 3108 3105 3103 3101 3100 3098 3096 3094 3091 3089 3088 3087 3086 3085 3083 3081 3079 3078 3077 3075 3073 3073 3072 3071 3069 3068 3066 3065 3062 3060 3057 3054 3050 3047
3131 3128 3125 3123 3122 3120 3118 3115 3113 3110 3107 3104 3102 3100 3097 3096 3094 3091 3089 3088 3087 3085 3084 3083 3082 3081 3079 3076 3075 3073 3072 3069 3068 3068 3068 3066 3064 3062 3060 3057 3054 3051 3050 3048 3044
3130 3127 3124 3121 3119 3117 3114 3112 3110 3107 3104 3101 3098 3095 3092 3092 3093 3087 3086 3084 3082 3081 3080 3079 3077 3076 3076 3073 3071 3070 3067 3066 3064 3064 3064 3062 3060 3058 3055 3052 3048 3045 3043 3038 3034
3127 3125 3122 3118 3116 3114 3112 3110 3107 3104 3100 3096 3093 3091 3088 3087 3085 3083 3081 3079 3078 3077 3076 3074 3073 3072 3071 3069 3068 3066 3064 3062 3060 3058 3058 3057 3055 3053 3050 3046 3042 3041 3036 3032 3027
3123 3120 3118 3116 3113 3111 3109 3106 3104 3100 3097 3093 3091 3087 3085 3082 3079 3078 3077 3076 3074 3073 3072 3072 3070 3068 3066 3065 3064 3060 3059 3058 3057 3055 3053 3053 3050 3047 3044 3040 3039 3035 3031 3027 3021
3119 3117 3114 3112 3110 3108 3106 3103 3100 3096 3093 3090 3087 3084 3081 3079 3075 3073 3072 3072 3070 3070 3068 3067 3066 3065 3063 3061 3059 3057 3056 3053 3051 3049 3048 3048 3043 3040 3038 3037 3035 3031 3026 3021 3016
3114 3113 3111 3108 3106 3104 3102 3099 3096 3094 3090 3087 3083 3081 3077 3073 3070 3068 3068 3067 3067 3065 3065 3063 3061 3060 3059 3057 3055 3054 3052 3050 3047 3046 3045 3045 3039 3037 3035 3033 3030 3026 3021 3015 3011
3108 3107 3105 3102 3101 3100 3097 3094 3092 3090 3087 3084 3080 3077 3073 3071 3068 3066 3065 3064 3062 3060 3059 3057 3056 3055 3054 3052 3052 3048 3048 3047 3046 3043 3041 3040 3035 3033 3031 3029 3026 3020 3014 3008 3001
3101 3100 3098 3096 3095 3093 3092 3090 3087 3084 3082 3080 3077 3077 3071 3068 3064 3062 3060 3058 3057 3054 3052 3050 3049 3047 3048 3048 3049 3047 3046 3044 3043 3040 3036 3034 3030 3030 3027 3025 3021 3014 3008 3001 2993
3094 3093 3091 3089 3089 3088 3088 3084 3085 3081 3077 3077 3073 3070 3066 3064 3060 3058 3055 3054 3051 3048 3046 3042 3044 3044 3044 3045 3045 3044 3043 3041 3039 3036 3032 3029 3026 3026 3024 3022 3016 3010 3004 2995 2988
3088 3087 3085 3083 3083 3082 3082 3081 3078 3076 3070 3068 3067 3064 3063 3060 3057 3055 3053 3052 3049 3046 3044 3043 3043 3042 3041 3042 3042 3041 3039 3037 3035 3031 3028 3024 3021 3020 3020 3019 3012 3004 2996 2988 2979
3081 3080 3080 3078 3076 3078 3077 3076 3073 3070 3068 3062 3060 3060 3060 3058 3055 3053 3051 3048 3047 3046 3044 3042 3043 3040 3040 3039 3039 3037 3036 3033 3033 3028 3024 3020 3018 3017 3017 3014 3010 3004 2994 2984 2972
3075 3075 3074 3074 3072 3071 3071 3069 3067 3066 3064 3059 3058 3057 3057 3055 3054 3051 3048 3048 3045 3044 3042 3041 3040 3038 3036 3036 3036 3035 3033 3031 3027 3025 3026 3023 3020 3016 3014 3012 3007 2999 2990 2981 2969
3070 3070 3069 3068 3067 3064 3065 3062 3060 3061 3061 3057 3055 3056 3054 3055 3053 3048 3046 3044 3042 3042 3043 3041 3039 3036 3036 3036 3035 3034 3030 3027 3023 3022 3023 3021 3022 3013 3012 3009 3003 2995 2986 2977 2968
3066 3065 3065 3064 3063 3062 3060 3060 3059 3063 3055 3055 3054 3054 3053 3050 3047 3044 3043 3042 3039 3038 3038 3037 3036 3035 3034 3035 3033 3031 3027 3022 3019 3021 3022 3017 3018 3013 3010 3004 2998 2992 2983 2973 2966
3061 3061 3061 3060 3060 3058 3058 3058 3060 3056 3056 3054 3052 3052 3050 3047 3043 3041 3041 3039 3037 3037 3035 3035 3034 3033 3033 3032 3031 3029 3027 3023 3019 3018 3013 3015 3015 3011 3009 3002 2995 2988 2981 2972 2966
3058 3057 3056 3056 3057 3054 3057 3059 3054 3053 3053 3053 3050 3048 3048 3044 3042 3039 3037 3036 3033 3034 3034 3034 3032 3031 3030 3031 3031 3028 3028 3028 3020 3012 3013 3014 3013 3011 3008 3001 2996 2990 2980 2973 2966
3054 3053 3053 3052 3054 3053 3054 3052 3050 3049 3050 3049 3047 3045 3044 3043 3042 3038 3034 3033 3031 3032 3034 3031 3030 3029 3028 3028 3030 3026 3026 3026 3023 3019 3017 3012 3011 3010 3006 3001 2996 2989 2982 2974 2966
3050 3049 3052 3050 3051 3051 3051 3049 3049 3047 3047 3046 3045 3043 3042 3041 3039 3036 3033 3031 3029 3030 3030 3030 3030 3027 3027 3027 3027 3026 3026 3025 3022 3017 3008 3009 3010 3010 3006 3000 2995 2988 2980 2974 2966
3047 3046 3048 3046 3047 3046 3045 3043 3043 3043 3043 3043 3040 3040 3039 3037 3036 3034 3032 3030 3027 3028 3028 3029 3029 3028 3027 3025 3025 3025 3023 3023 3023 3021 3017 3009 3010 3009 3004 2999 2993 2988 2982 2975 2967
3043 3044 3044 3044 3045 3041 3040 3040 3040 3039 3038 3037 3035 3035 3034 3034 3031 3030 3028 3027 3025 3026 3026 3027 3026 3025 3025 3024 3024 3023 3022 3021 3021 3021 3018 3017 3012 3008 3004 2999 2994 2989 2984 2977 2970
3039 3041 3040 3040 3039 3038 3039 3037 3036 3034 3033 3033 3032 3032 3032 3032 3030 3026 3025 3024 3023 3023 3024 3025 3024 3024 3023 3025 3022 3020 3019 3019 3018 3017 3015 3015 3010 3007 3004 2999 2994 2990 2987 2980 2974
3037 3038 3037 3035 3034 3035 3036 3034 3033 3032 3030 3030 3030 3030 3029 3027 3026 3023 3022 3021 3020 3020 3022 3022 3022 3022 3021 3021 3021 3019 3017 3016 3016 3016 3012 3011 3010 3007 3003 2999 2995 2991 2988 2983 2976
3033 3032 3033 3033 3033 3033 3033 3032 3030 3029 3028 3027 3025 3026 3025 3023 3021 3018 3018 3018 3017 3018 3018 3020 3020 3020 3019 3019 3017 3015 3014 3013 3012 3012 3011 3009 3008 3006 3003 3000 2996 2993 2990 2986 2980
3028 3030 3028 3028 3028 3027 3028 3028 3027 3026 3026 3024 3022 3021 3020 3019 3018 3017 3016 3015 3015 3014 3015 3016 3018 3017 3018 3016 3014 3011 3010 3009 3008 3007 3007 3007 3007 3005 3003 2999 2997 2994 2991 2988 2983
3023 3024 3024 3024 3023 3024 3023 3025 3023 3022 3022 3021 3019 3017 3015 3015 3012 3012 3012 3012 3012 3012 3013 3015 3016 3017 3016 3014 3013 3009 3005 3003 3005 3005 3006 3006 3006 3004 3003 2999 2997 2995 2993 2990 2986